AC8JV Weather Reports


time (UTC)temp
F
wind
direction
speed
knots
gust
knots
rain 1hr
in
rain 24hr
in
rain mn
in
humidity
%
barometer
mb
20260509064002 45 182 0.9 3.5 0.00 0.00 0.00 68 1006.0
20260509063017 45 203 1.7 4.3 0.00 0.00 0.00 67 1006.1
20260509062009 45 200 1.7 5.2 0.00 0.00 0.00 64 1006.0
20260509061007 45 203 1.7 4.3 0.00 0.00 0.00 64 1006.1
20260509060003 45 173 1.7 3.5 0.00 0.00 0.00 63 1006.3
20260509055014 44 186 1.7 5.2 0.00 0.00 0.00 61 1006.3
20260509054018 44 195 1.7 4.3 0.00 0.00 0.00 61 1006.5
20260509053025 44 192 1.7 4.3 0.00 0.00 0.00 62 1006.4
20260509052019 44 178 0.9 2.6 0.00 0.00 0.00 62 1006.4
20260509051002 44 180 1.7 2.6 0.00 0.00 0.00 62 1006.3
20260509050004 44 180 0.9 3.5 0.00 0.00 0.00 60 1006.5
20260509044957 44 177 1.7 3.5 0.00 0.00 0.00 64 1006.6
20260509044002 44 173 0.9 2.6 0.00 0.00 0.00 63 1006.6
20260509042025 45 213 1.7 2.6 0.00 0.00 0.00 63 1006.9
20260509040958 45 215 0.9 3.5 0.00 0.00 0.00 61 1006.9
20260509040010 46 215 0.9 2.6 0.00 0.00 0.00 59 1007.0
20260509035017 46 215 0.9 1.7 0.00 0.00 0.00 57 1007.0
20260509034016 47 216 0.9 2.6 0.00 0.00 0.00 55 1007.1
20260509033025 47 216 0.0 2.6 0.00 0.00 0.00 55 1007.1
20260509032004 47 216 0.9 3.5 0.00 0.00 0.00 52 1007.1
20260509031013 47 226 0.9 3.5 0.00 0.00 0.00 50 1007.4
20260509030003 48 235 0.9 2.6 0.00 0.00 0.00 48 1007.5
20260509024000 49 235 0.9 2.6 0.00 0.00 0.00 46 1007.7
20260509023043 49 236 0.9 1.7 0.00 0.00 0.00 46 1007.7
20260509021029 50 236 0.9 1.7 0.00 0.00 0.00 45 1007.9
20260509020013 51 236 1.7 2.6 0.00 0.00 0.00 43 1007.8
20260509015003 51 241 1.7 2.6 0.00 0.00 0.00 42 1007.8
20260509014024 52 241 0.9 1.7 0.00 0.00 0.00 40 1007.8
20260509013013 53 242 0.9 1.7 0.00 0.00 0.00 38 1007.7
20260509012033 53 242 0.9 1.7 0.00 0.00 0.00 35 1007.6
20260509011005 54 242 0.0 1.7 0.00 0.00 0.00 32 1007.6
20260509010026 55 242 1.7 2.6 0.00 0.00 0.00 32 1007.7
20260509005019 56 259 0.9 2.6 0.00 0.00 0.00 29 1007.7
20260509004029 57 259 0.0 0.9 0.00 0.00 0.00 28 1007.6
20260509002034 59 259 0.0 0.9 0.00 0.00 0.00 27 1007.7
20260509001003 60 259 0.9 4.3 0.00 0.00 0.00 24 1007.8
20260508235005 61 236 3.5 8.7 0.00 0.00 0.00 23 1008.0
20260508234006 62 292 4.3 9.6 0.00 0.00 0.00 22 1008.2
20260508233022 62 264 4.3 9.6 0.00 0.00 0.00 21 1008.1
20260508232007 63 277 4.3 8.7 0.00 0.00 0.00 23 1008.1
20260508231027 63 298 6.1 10.4 0.00 0.00 0.00 21 1008.1
20260508230007 63 255 5.2 8.7 0.00 0.00 0.00 20 1008.1
20260508225001 63 277 5.2 9.6 0.00 0.00 0.00 22 1008.3
20260508224001 64 288 7.8 11.3 0.00 0.00 0.00 21 1008.3
20260508223003 64 244 5.2 10.4 0.00 0.00 0.00 20 1008.4
20260508222003 64 274 6.1 11.3 0.00 0.00 0.00 21 1008.4
20260508221009 64 252 6.1 12.2 0.00 0.00 0.00 21 1008.4
20260508220005 64 296 6.1 13.0 0.00 0.00 0.00 21 1008.5
20260508215013 64 273 5.2 13.0 0.00 0.00 0.00 21 1008.5
20260508214002 64 263 9.6 12.2 0.00 0.00 0.00 22 1008.5
20260508213001 64 279 7.0 13.9 0.00 0.00 0.00 20 1008.4
20260508212012 64 261 5.2 11.3 0.00 0.00 0.00 27 1008.5
20260508210025 64 221 6.1 12.2 0.00 0.00 0.00 21 1008.6
20260508205058 64 250 4.3 10.4 0.00 0.00 0.00 21 1008.6
20260508204002 64 259 8.7 13.0 0.00 0.00 0.00 22 1008.8
20260508203014 65 232 7.8 13.0 0.00 0.00 0.00 23 1009.0
20260508202016 65 252 7.0 13.0 0.00 0.00 0.00 23 1008.9
20260508201015 65 278 7.0 14.8 0.00 0.00 0.00 22 1009.1
20260508200005 65 277 9.6 14.8 0.00 0.00 0.00 24 1009.2
20260508195007 64 243 8.7 16.5 0.00 0.00 0.00 25 1009.3
20260508194007 64 279 8.7 12.2 0.00 0.00 0.00 21 1009.4
20260508192959 64 279 6.1 11.3 0.00 0.00 0.00 23 1009.5
20260508192024 64 284 7.0 13.9 0.00 0.00 0.00 29 1009.6
20260508191004 63 280 5.2 12.2 0.00 0.00 0.00 24 1009.7
20260508190003 64 256 7.0 13.0 0.00 0.00 0.00 26 1009.8
20260508185010 64 283 7.8 13.0 0.00 0.00 0.00 28 1009.9
20260508184014 64 302 6.1 11.3 0.00 0.00 0.00 27 1009.8
20260508183015 64 223 2.6 14.8 0.00 0.00 0.00 25 1010.0
20260508182006 64 290 4.3 11.3 0.00 0.00 0.00 27 1010.2
20260508180002 63 251 7.0 14.8 0.00 0.00 0.00 27 1010.3
20260508175004 64 265 5.2 13.0 0.00 0.00 0.00 26 1010.2
20260508174007 64 321 6.1 10.4 0.00 0.00 0.00 33 1010.5
20260508173002 63 214 3.5 8.7 0.00 0.00 0.00 31 1010.7
20260508172008 63 301 6.1 9.6 0.00 0.00 0.00 31 1010.9
20260508171058 63 271 3.5 7.0 0.00 0.00 0.00 29 1010.9
20260508170004 63 293 2.6 12.2 0.00 0.00 0.00 30 1011.0
20260508165009 63 266 2.6 10.4 0.00 0.00 0.00 35 1011.2
20260508164022 62 286 1.7 10.4 0.00 0.00 0.00 36 1011.4
20260508163004 62 259 4.3 12.2 0.00 0.00 0.00 35 1011.5
20260508162016 61 279 4.3 9.6 0.00 0.00 0.00 35 1011.5
20260508161005 60 244 5.2 9.6 0.00 0.00 0.00 34 1011.6
20260508160016 60 269 3.5 7.0 0.00 0.00 0.00 37 1011.7
20260508154025 59 304 0.9 6.1 0.00 0.00 0.00 38 1011.6
20260508153009 58 229 3.5 7.0 0.00 0.00 0.00 43 1011.9
20260508152113 58 240 2.6 7.0 0.00 0.00 0.00 41 1011.9
20260508150959 57 190 2.6 7.8 0.00 0.00 0.00 45 1012.0
20260508150003 56 207 1.7 3.5 0.00 0.00 0.00 48 1012.1
20260508145000 56 239 0.9 4.3 0.00 0.00 0.00 44 1012.2
20260508144002 55 205 3.5 4.3 0.00 0.00 0.00 58 1012.2
20260508142012 53 209 3.5 7.0 0.00 0.00 0.00 65 1012.3
20260508141028 52 223 1.7 6.1 0.00 0.00 0.00 69 1012.5
20260508140114 51 254 0.9 4.3 0.00 0.00 0.00 75 1012.6
20260508135001 49 197 2.6 6.1 0.00 0.00 0.00 79 1012.5
20260508134015 48 216 1.7 6.1 0.00 0.00 0.00 84 1012.5
20260508132001 45 197 4.3 7.0 0.00 0.00 0.00 94 1012.9
20260508131008 44 191 2.6 6.1 0.00 0.00 0.00 94 1012.9
20260508130008 43 182 0.9 5.2 0.00 0.00 0.00 94 1012.9
20260508125002 41 208 2.6 6.1 0.00 0.00 0.00 94 1013.0
20260508124003 40 228 3.5 7.0 0.00 0.00 0.00 94 1013.0
20260508123041 39 194 0.9 3.5 0.00 0.00 0.00 94 1013.0
20260508120031 35 191 0.9 1.7 0.00 0.00 0.00 93 1012.4
20260508114008 34 207 1.7 2.6 0.00 0.00 0.00 92 1012.1
20260508112056 34 215 0.0 1.7 0.00 0.00 0.00 91 1012.1
20260508111007 34 215 0.0 1.7 0.00 0.00 0.00 91 1012.0
20260508110001 33 215 0.9 0.9 0.00 0.00 0.00 90 1012.0
20260508104016 34 242 0.0 0.9 0.00 0.00 0.00 89 1012.1
20260508103013 34 242 0.0 1.7 0.00 0.00 0.00 89 1012.1
20260508102002 34 242 0.0 0.0 0.00 0.00 0.00 89 1011.9
20260508100038 35 242 0.0 0.9 0.00 0.00 0.00 90 1011.8
20260508095100 35 242 0.0 0.9 0.00 0.00 0.00 90 1012.0
20260508093003 35 242 0.0 1.7 0.00 0.00 0.00 90 1011.8
20260508092040 35 242 0.9 2.6 0.00 0.00 0.00 89 1012.0
20260508091000 35 242 0.9 1.7 0.00 0.00 0.00 88 1011.9
20260508090000 35 242 0.0 0.9 0.00 0.00 0.00 88 1012.0
20260508085000 36 242 0.0 0.9 0.00 0.00 0.00 88 1012.0
20260508084009 36 242 0.9 2.6 0.00 0.00 0.00 88 1012.0
20260508083053 36 242 0.9 2.6 0.00 0.00 0.00 88 1012.1
20260508082000 36 242 0.0 1.7 0.00 0.00 0.00 88 1012.1
20260508081005 36 242 0.0 0.9 0.00 0.00 0.00 88 1012.2
20260508080001 36 242 0.9 3.5 0.00 0.00 0.00 88 1012.2
20260508075009 37 244 0.0 1.7 0.00 0.00 0.00 87 1012.2
20260508074001 37 244 0.0 0.9 0.00 0.00 0.00 86 1012.2
20260508073010 37 244 0.9 0.9 0.00 0.00 0.00 86 1012.4
20260508072009 37 244 0.0 0.0 0.00 0.00 0.00 86 1012.6
20260508070027 38 244 0.0 1.7 0.00 0.00 0.00 86 1012.7
20260508065032 38 244 0.9 2.6 0.00 0.00 0.00 86 1012.8